Retour au catalogue

DELTA 1 DEB

ActifPO
NORAD 21342·DEBRIS·🇺🇸 United States

Lancé Jun 12, 1975 depuis Vandenberg Space Force Base

Loading…

Prochains Passages (prochaines 24 heures)

TLE

FraisSource: Space-Track

Époque: Sep 14, 2026, 08:40 UTC

1 21342U 75052BL  26257.36153441  .00002411  00000-0  71071-3 0  9997
2 21342  99.9974 290.5685 0119230  25.4211 347.8726 14.40746868818111

Suivez DELTA 1 DEB en temps réel avec AllMySat

Download on the App Store